Suceava, Romania

10:19 AM EEST on July 26, 2017 (GMT +0300)
Salcea

Weather History for LRSV - April, 2013

Change the Weather History Date:

Saturday, April 6, 2013

  Actual Average Record
Temperature  
Mean Temperature 42 °F -  
Max Temperature 46 °F - - ()
Min Temperature 37 °F - - ()
Degree Days  
Heating Degree Days 24    
Moisture  
Dew Point 39 °F    
Average Humidity 92    
Maximum Humidity 100    
Minimum Humidity 81    
Precipitation  
Precipitation 0.00 in - - ()
Sea Level Pressure  
Sea Level Pressure 29.74 in    
Wind  
Wind Speed 10 mph ()    
Max Wind Speed 20 mph    
Max Gust Speed -    
Visibility 5.1 miles    
Events Fog , Rain    
T = Trace of Precipitation, MM = Missing Value Source: Averaged Metar Reports

Daily Weather History Graph

Daily Weather History Graph

Search for Another Location

Airport or City:

Trip Planner

Search our weather history database for the weather conditions in past years. The results will help you decide how hot, cold, wet, or windy it might be!

Date:

Astronomy

Apr. 06, 2013 Rise Set
Actual Time 6:43 AM EEST 7:51 PM EEST
Civil Twilight 6:12 AM EEST 8:23 PM EEST
Nautical Twilight 5:34 AM EEST 9:01 PM EEST
Astronomical Twilight 4:53 AM EEST 9:42 PM EEST
Moon 4:32 AM EEST (4/6) 3:44 PM EEST (4/6)
Length of Visible Light 14h 11m
Length of Day
13h 08m
Waning Crescent, 17% of the Moon is Illuminated
Apr 6
Waning Crescent
Apr 10
New
Apr 18
First Quarter
Apr 25
Full
May 2
Last Quarter

Hourly Weather History & Observations

Time (EEST) Temp. Windchill Dew Point Humidity Pressure Visibility Wind Dir Wind Speed Gust Speed Precip Events Conditions
12:00 AM 46.4 °F 41.9 °F 46.4 °F 100% 29.62 in 1.2 mi South 9.2 mph - N/A   Light Drizzle
1:00 AM 46.4 °F 41.9 °F 46.4 °F 100% 29.62 in 0.5 mi West 9.2 mph - N/A Fog Fog
2:00 AM 46.4 °F 42.9 °F 44.6 °F 93% 29.62 in 0.4 mi NW 6.9 mph - N/A Fog Fog
3:00 AM 44.6 °F 40.7 °F 44.6 °F 100% 29.62 in 0.9 mi NNW 6.9 mph - N/A   Mostly Cloudy
4:00 AM 44.6 °F 38.8 °F 42.8 °F 93% 29.59 in 3.1 mi NNW 11.5 mph - N/A   Scattered Clouds
5:00 AM 42.8 °F 35.8 °F 41.0 °F 93% 29.62 in 4.3 mi NNW 13.8 mph - N/A   Mostly Cloudy
5:30 AM 41.0 °F 34.3 °F 41.0 °F 100% 29.62 in 5.0 mi NNW 11.5 mph - N/A   Partly Cloudy
6:00 AM 41.0 °F 38.0 °F 41.0 °F 100% 29.62 in - NNW 4.6 mph - N/A   Clear
6:30 AM 41.0 °F - 41.0 °F 100% 29.62 in 6.2 mi Variable 2.3 mph - N/A   Partly Cloudy
7:00 AM 41.0 °F - 39.2 °F 93% 29.62 in 5.0 mi Variable 2.3 mph - N/A   Scattered Clouds
7:30 AM 42.8 °F 40.1 °F 41.0 °F 93% 29.65 in 6.2 mi NW 4.6 mph - N/A   Mostly Cloudy
8:00 AM 42.8 °F - 41.0 °F 93% 29.65 in 6.2 mi Calm Calm - N/A   Mostly Cloudy
8:30 AM 42.8 °F - 41.0 °F 93% 29.65 in 6.2 mi North 2.3 mph - N/A   Mostly Cloudy
9:00 AM 42.8 °F 38.6 °F 41.0 °F 93% 29.65 in 5.0 mi WNW 6.9 mph - N/A   Overcast
9:30 AM 41.0 °F 35.2 °F 41.0 °F 100% 29.68 in 1.9 mi NNW 9.2 mph - N/A   Light Drizzle
10:00 AM 41.0 °F 34.3 °F 39.2 °F 93% 29.68 in 3.1 mi NNW 11.5 mph - N/A   Light Drizzle
10:30 AM 41.0 °F 32.2 °F 39.2 °F 93% 29.68 in 3.1 mi NNW 18.4 mph - N/A   Light Drizzle
11:00 AM 39.2 °F 30.5 °F 37.4 °F 93% 29.71 in 5.0 mi NNW 16.1 mph - N/A   Light Drizzle
11:30 AM 39.2 °F 29.6 °F 37.4 °F 93% 29.71 in 6.2 mi NNW 19.6 mph - N/A   Light Drizzle
12:00 PM 41.0 °F 31.9 °F 37.4 °F 87% 29.71 in 6.2 mi NNW 19.6 mph - N/A Rain Light Rain
12:30 PM 41.0 °F 32.2 °F 37.4 °F 87% 29.74 in 6.2 mi NNW 18.4 mph - N/A   Mostly Cloudy
1:00 PM 39.2 °F 29.6 °F 37.4 °F 93% 29.74 in 6.2 mi NNW 19.6 mph - N/A   Mostly Cloudy
1:30 PM 39.2 °F 29.8 °F 37.4 °F 93% 29.77 in 6.2 mi NNW 18.4 mph - N/A   Mostly Cloudy
2:00 PM 39.2 °F 29.8 °F 35.6 °F 87% 29.77 in 6.2 mi NNW 18.4 mph - N/A   Mostly Cloudy
2:30 PM 41.0 °F 32.8 °F 37.4 °F 87% 29.80 in 6.2 mi NNW 16.1 mph - N/A   Light Drizzle
3:00 PM 39.2 °F 30.5 °F 37.4 °F 93% 29.80 in 6.2 mi NNW 16.1 mph - N/A   Light Drizzle
3:30 PM 39.2 °F 29.8 °F 37.4 °F 93% 29.80 in 6.2 mi NNW 18.4 mph - N/A   Light Drizzle
4:00 PM 39.2 °F 31.2 °F 37.4 °F 93% 29.80 in 6.2 mi NNW 13.8 mph - N/A   Light Drizzle
4:30 PM 41.0 °F 33.5 °F 37.4 °F 87% 29.80 in 6.2 mi NNW 13.8 mph - N/A   Mostly Cloudy
5:00 PM 41.0 °F 32.8 °F 37.4 °F 87% 29.83 in 6.2 mi NNW 16.1 mph - N/A   Mostly Cloudy
5:30 PM 41.0 °F 32.8 °F 37.4 °F 87% 29.83 in 6.2 mi NNW 16.1 mph - N/A   Scattered Clouds
6:00 PM 41.0 °F 32.8 °F 35.6 °F 81% 29.83 in 6.2 mi NNW 16.1 mph - N/A   Partly Cloudy
6:30 PM 39.2 °F 30.5 °F 35.6 °F 87% 29.83 in 6.2 mi NNW 16.1 mph - N/A   Mostly Cloudy
7:00 PM 39.2 °F 30.5 °F 35.6 °F 87% 29.86 in 6.2 mi NNW 16.1 mph - N/A   Overcast
7:30 PM 39.2 °F 30.5 °F 35.6 °F 87% 29.86 in 6.2 mi NNW 16.1 mph - N/A   Overcast
8:00 PM 39.2 °F 32.0 °F 35.6 °F 87% 29.86 in 6.2 mi NNW 11.5 mph - N/A   Overcast
8:30 PM 37.4 °F 28.9 °F 35.6 °F 93% 29.89 in 6.2 mi NNW 13.8 mph - N/A   Overcast
9:00 PM 37.4 °F 28.9 °F 35.6 °F 93% 29.89 in 6.2 mi NNW 13.8 mph - N/A   Mostly Cloudy
10:00 PM 37.4 °F 29.8 °F 33.8 °F 87% 29.92 in 6.2 mi North 11.5 mph - N/A   Mostly Cloudy
11:00 PM 37.4 °F 29.8 °F 33.8 °F 87% 29.92 in 6.2 mi NNW 11.5 mph - N/A   Overcast